Regional Weather Roundup
Issued by NWS Charleston, WV

Home | Current Version | Previous Version | Text Only | Print | Product List | Glossary Off
Versions: 1 2 3 4 5 6 7 8 9 10 11 12 13 14 15 16 17 18 19 20 21 22 23 24 25 26 27 28 29 30 31 32 33 34 35 36 37 38 39 40 41 42 43 44 45 46 47 48 49 50

858
ASUS41 KRLX 111110
RWRRLX
West Virginia Regional Weather Roundup
National Weather Service Charleston WV
600 AM EST THU FEB 11 2016

Note: "fair" indicates few or no clouds below 12,000 feet with no
significant weather and/or obstructions to visibility.

WVZ003-111200-
Northern Panhandle of West Virginia

CITY           SKY/WX    TMP DP  RH WIND       PRES   REMARKS
WHEELING         N/A     10   4  76 W13       30.04R WCI  -5
$$

WVZ009-111200-
Northwest West Virginia

CITY           SKY/WX    TMP DP  RH WIND       PRES   REMARKS
PARKERSBURG      N/A     11   4  73 W8        30.17R WCI  -1
$$

WVZ006-111200-
Western West Virginia

CITY           SKY/WX    TMP DP  RH WIND       PRES   REMARKS
HUNTINGTON     CLOUDY    17   7  64 W3        30.18R
$$

WVZ015-111200-
West Central West Virginia

CITY           SKY/WX    TMP DP  RH WIND       PRES   REMARKS
CHARLESTON     FLURRIES  16   4  59 VRB6      30.16R WCI   7
$$

WVZ022-031-111200-
North Central West Virginia

CITY           SKY/WX    TMP DP  RH WIND       PRES   REMARKS
CLARKSBURG     FLURRIES  12   6  77 W7        30.07R WCI   1
MORGANTOWN     CLOUDY    12   3  67 SW8       30.05R WCI   0
$$

WVZ025-035-042-045-111200-
Southern West Virginia

CITY           SKY/WX    TMP DP  RH WIND       PRES   REMARKS
BECKLEY        LGT SNOW  10   4  76 W8        30.01R WCI  -2
LOGAN          CLOUDY    14   7  73 W5        30.10R WCI   6
BLUEFIELD      LGT SNOW   9   4  80 NW12G21   29.99R WCI  -6
LEWISBURG      CLOUDY    14   5  68 W9G16     29.99R WCI   2
$$

WVZ047-111200-
Northern Mountains of West Virginia

CITY           SKY/WX    TMP DP  RH WIND       PRES   REMARKS
ELKINS         LGT SNOW  10   2  69 W7        30.00R WCI  -1
$$

WVZ052-111200-
Eastern Panhandle of West Virginia

CITY           SKY/WX    TMP DP  RH WIND       PRES   REMARKS
MARTINSBURG      N/A     16   2  54 W6        30.01R WCI   7
PETERSBURG     MOCLDY    17   2  52 W9        30.02R WCI   6
$$




USA.gov is the U.S. government's official web portal to all federal, state and local government web resources and services.